Location: *
(38.9800°N, 16.0500°E)
Time: 06:17:41
(UTC+00:00)

ATLAS 3B R/B - Pass Details

Date: 07 April 2020
Orbit: 1024 x 1171 km, 63.8° (Epoch: 20 May)

Event Time Altitude Azimuth Distance (km) Brightness Sun altitude
Exits shadow 02:38:47 27° 197° (SSW) 1,880 3.6 -21.3°
Maximum altitude 02:42:39 72° 120° (ESE) 1,076 2.7 -20.7°
Drops below altitude 10° 02:49:14 10° 37° (NE) 2,821 5.9 -19.5°
Sets 02:51:51 0° 35° (NE) 3,782 6.7 -19.1°
